Find Starlink 32501

NORAD ID: 61890 Int'l Des: 2024-204 Owner: SPXS Country: US Constellation: starlink operational
LEOCIRCULAR

Current View

Loading 3D Globe...

About Starlink 32501

Starlink 32501 (NORAD 61890) is a starlink constellation satellite (v2 mini) launched Nov 9, 2024 by SPXS of US. It operates in LEO, CIRCULAR orbit with a mass of 730.00 kg.

About Starlink 32501

Description loading...

Upcoming Passes

Passes for default location (London). Set your location on the main map for personalized predictions.

Altitude History

Loading altitude history...

Two-Line Element Set

1 61890U 24204S 26177.71948310 -.00001417 00000-0 -30832-4 0 9997
2 61890 53.1602 339.0100 0001335 88.3058 271.8097 15.34379686 91818
Epoch: Jun 26, 2026 • Age: 10 hours

Current Status

Altitude 479.1 km
Velocity 7.63 km/s
Sub-Earth Point -45.69°S, 124.08°W
Launch Date Nov 9, 2024
Age 1.6 years
Type internet

Technical Details

Classification Payload
Mass 730.00 kg
Dry Mass 700.00 kg
Total Mass 730.00 kg
Length 0.30 m
Diameter 4.10 m
Span 29.00 m
Shape Box + pan
Manufacturer SPXS
Bus Type Starlink V2M
Phase Status In Orbit
Owner/State SPXS/US

Most Searched